Location: Poprad
(49.0500°N, 20.3000°E)
Time: 09:42:12
(UTC+01:00)

ISS - Pass Details

Date: 28 January 2021
Orbit: 417 x 422 km, 51.6° (Epoch: 07 March)

Event Time Altitude Azimuth Distance (km) Brightness Sun altitude
Rises 17:12:33 0° 267° (W) 2,369 1.8 -7.3°
Reaches altitude 10° 17:14:40 10° 272° (W) 1,506 0.4 -7.6°
Maximum altitude 17:18:01 57° 352° (N) 503 -3.4 -8.2°
Enters shadow 17:21:04 12° 71° (ENE) 1,392 -1.8 -8.6°
